Regional Weather Roundup
Issued by NWS

Home | Current Version | Previous Version | Text Only | Print | Product List | Glossary Off
Versions: 1 2 3 4 5 6 7 8 9 10 11 12 13 14 15 16 17 18 19 20 21 22 23 24 25 26 27 28 29 30 31 32 33 34 35 36 37 38 39 40 41 42 43 44 45 46 47 48 49 50

000
ASUS43 KOAX 251702
RWRNE

WEATHER ROUNDUP FOR NEBRASKA
NATIONAL WEATHER SERVICE OMAHA NE
1200 PM CDT MON JUL 25 2016

NOTES: SATELLITE DATA IS BEING USED TO AUGMENT CLOUD COVER ABOVE
       12000 FEET.
       "FAIR" INDICATES FEW OR NO CLOUDS BELOW 12,000 FEET WITH NO
       SIGNIFICANT WEATHER AND/OR OBSTRUCTIONS TO VISIBILITY.

  * THESE STATIONS DO NOT REPORT WEATHER SUCH AS RAIN...SNOW OR FOG.

NEZ001>004-019>022-054>056-251800-
NEBRASKA PANHANDLE

CITY           SKY/WX    TMP DP  RH WIND       PRES   REMARKS
SCOTTSBLUFF    SUNNY     82  56  40 SE13      30.15F
ALLIANCE       SUNNY     79  57  46 S21G26    30.17F
CHADRON        SUNNY     83  54  36 S18       30.11F
KIMBALL        SUNNY     76  58  53 S17       30.22S
SIDNEY         SUNNY     79  57  46 S18G28    30.20F
$$

NEZ057>060-069>072-079>082-251800-
SOUTHWEST NEBRASKA

CITY           SKY/WX    TMP DP  RH WIND       PRES   REMARKS
NORTH PLATTE   SUNNY     79  65  62 E12       30.17F
IMPERIAL       SUNNY     78  62  57 SE14      30.18F
LEXINGTON      SUNNY     79  63  57 SE12      30.17F
MCCOOK         SUNNY     81  62  52 SE13      30.16F
OGALLALA       SUNNY     81  60  48 SE12      30.18S
$$

NEZ005>010-023>029-035>040-094-251800-
NORTH CENTRAL NEBRASKA

CITY           SKY/WX    TMP DP  RH WIND       PRES   REMARKS
VALENTINE      SUNNY     84  51  31 S20G26    30.14F
AINSWORTH      SUNNY     82  50  32 SE14      30.16F
BROKEN BOW     SUNNY     79  61  53 SE14      30.18S
O`NEILL        SUNNY     84  52  33 S14       30.16F
ORD            SUNNY     79  55  43 S9        30.15F
THEDFORD       SUNNY     82  56  41 SE15      30.19S
$$

NEZ041-046>049-061>064-073>077-083>087-251800-
SOUTH CENTRAL NEBRASKA

CITY           SKY/WX    TMP DP  RH WIND       PRES   REMARKS
GRAND ISLAND   CLOUDY    80  64  58 SE12G18   30.16F
AURORA         MOSUNNY   80  62  54 S10       30.17S
HASTINGS       MOSUNNY   79  65  62 SE7       30.17F
HEBRON         CLOUDY    78  62  58 E7        30.14S
HOLDREGE       SUNNY     77  63  61 E12       30.17S
KEARNEY *      SUNNY     81  64  57 SE12      30.17F
YORK           SUNNY     79  64  61 S5        30.16F
$$

NEZ011>018-030>034-042>045-251800-
NORTHEAST NEBRASKA

CITY           SKY/WX    TMP DP  RH WIND       PRES   REMARKS
NORFOLK        SUNNY     80  62  54 S9G17     30.16S
ALBION         SUNNY     78  61  55 S9        30.17S
BLAIR          MOSUNNY   81  65  58 S5        30.15S
FREMONT        SUNNY     80  64  59 S3        30.16R
TEKAMAH        SUNNY     82  63  52 VRB6      30.13F
WAYNE          SUNNY     80  67  63 S8        30.15F
$$

NEZ050>053-065>068-078-088>093-251800-
SOUTHEAST NEBRASKA

CITY           SKY/WX    TMP DP  RH WIND       PRES   REMARKS
LINCOLN        SUNNY     81  65  58 VRB6      30.15F
OMAHA EPPLEY   MOSUNNY   83  64  52 CALM      30.13S
BEATRICE       MOSUNNY   80  60  49 E7        30.13F
FALLS CITY     PTSUNNY   78  68  71 E6        30.12S
NEBRASKA CITY  CLOUDY    78  66  65 CALM      30.14F
PLATTSMOUTH    MOSUNNY   80  66  61 S6        30.15S
$$

NEZ044-045-051>053-067-251800-
OMAHA AREA

CITY           SKY/WX    TMP DP  RH WIND       PRES   REMARKS
OMAHA EPPLEY   MOSUNNY   83  64  52 CALM      30.13S
BLAIR          MOSUNNY   81  65  58 S5        30.15S
FREMONT        SUNNY     80  64  59 S3        30.16R
MILLARD        CLOUDY    81  66  60 S5        30.14S
OFFUTT AFB     MOSUNNY   81  66  60 SE8       30.14R
PLATTSMOUTH    MOSUNNY   80  66  61 S6        30.15S
WAHOO          FAIR      80  64  59 SE3       30.15S
$$




USA.gov is the U.S. government's official web portal to all federal, state and local government web resources and services.